Powrót do katalogu

STARLINK-32528

AktywnyŁącznośćVLEO
NORAD 61724·PAYLOAD·🇺🇸 United States

Wystrzelony Oct 30, 2024 z Cape Canaveral Space Force Station

Loading…

Następne Przeloty (najbliższe 24 godziny)

TLE

ŚwieżeSource: CelesTrak SupGP

Epoka: Sep 15, 2026, 02:50 UTC

1 61724C 24196T   26258.11854167  .00023534  00000+0  69517-3 0  2583
2 61724  53.1579 298.6325 0001275  91.0976 100.1886 15.34385443    19

Śledź STARLINK-32528 w czasie rzeczywistym z AllMySat

Download on the App Store